Location: Drocourt
(49.0571°N, 1.7669°E)
Time: 00:29:36
(UTC+00:00)

Cosmos 2278 Rocket - Pass Details

Date: 09 February 2023
Orbit: 841 x 845 km, 71.0° (Epoch: 21 March)

Event Time Altitude Azimuth Distance (km) Brightness Sun altitude
Rises 18:27:24 0° 333° (NNW) 3,416 5.7 -14.2°
Reaches altitude 10° 18:29:54 10° 337° (NNW) 2,477 4.9 -14.7°
Maximum altitude 18:35:32 59° 57° (ENE) 973 2.2 -15.6°
Enters shadow 18:40:54 11° 136° (SE) 2,385 4.2 -16.4°
